Weather History for Amberley Military, Queensland

Change the Weather History Date:

Thursday, October 17, 2013

  Actual Average Record
Temperature  
Mean Temperature 68 °F -  
Max Temperature 86 °F - - ()
Min Temperature 51 °F - - ()
Cooling Degree Days 4    
Growing Degree Days 18 (Base 50)    
Moisture  
Dew Point 56 °F    
Average Humidity 67    
Maximum Humidity 100    
Minimum Humidity 31    
Precipitation  
Precipitation 0.00 in - - ()
Sea Level Pressure  
Sea Level Pressure 30.03 in    
Wind  
Wind Speed 5 mph ()    
Max Wind Speed 20 mph    
Max Gust Speed -    
Visibility 6.2 miles    
Events      
T = Trace of Precipitation, MM = Missing Value Source: Averaged Metar Reports

Daily Weather History Graph

Daily Weather History Graph

Search for Another Location

Airport:

Trip Planner

Search our weather history database for the weather conditions in past years. The results will help you decide how hot, cold, wet, or windy it might be!

Date:

Astronomy

Oct. 17, 2013 Rise Set
Actual Time 5:11 AM AEST 5:58 PM AEST
Civil Twilight 4:47 AM AEST 6:22 PM AEST
Nautical Twilight 4:19 AM AEST 6:50 PM AEST
Astronomical Twilight 3:50 AM AEST 7:18 PM AEST
Moon 4:19 PM AEST (10/17) 3:42 AM AEST (10/17)
Length of Visible Light 13h 34m
Length of Day
12h 46m
Waxing Gibbous, 96% of the Moon is Illuminated
Oct 17
Waxing Gibbous
Oct 19
Full
Oct 27
Last Quarter
Nov 3
New
Nov 10
First Quarter

Hourly Weather History & Observations

Time (AEST) Temp. Heat Index Dew Point Humidity Pressure Visibility Wind Dir Wind Speed Gust Speed Precip Events Conditions
12:00 AM 59.0 °F - 53.6 °F 82% 30.12 in 6.2 mi NW 1.2 mph - N/A   Unknown
12:30 AM 57.2 °F - 53.6 °F 88% 30.12 in 6.2 mi Calm Calm - N/A   Unknown
1:00 AM 57.2 °F - 53.6 °F 88% 30.09 in 6.2 mi Calm Calm - N/A   Unknown
1:30 AM 55.4 °F - 51.8 °F 88% 30.09 in 6.2 mi NNW 4.6 mph - N/A   Unknown
2:00 AM 55.4 °F - 51.8 °F 88% 30.09 in 6.2 mi NW 5.8 mph - N/A   Unknown
2:30 AM 53.6 °F - 51.8 °F 94% 30.09 in 6.2 mi Calm Calm - N/A   Unknown
3:00 AM 55.4 °F - 53.6 °F 94% 30.09 in 6.2 mi Calm Calm - N/A   Unknown
3:30 AM 55.4 °F - 51.8 °F 88% 30.09 in 6.2 mi Calm Calm - N/A   Unknown
4:00 AM 51.8 °F - 50.0 °F 94% 30.09 in 6.2 mi Calm Calm - N/A   Unknown
4:30 AM 53.6 °F - 51.8 °F 94% 30.09 in 6.2 mi Calm Calm - N/A   Unknown
5:00 AM 51.8 °F - 51.8 °F 100% 30.09 in 6.2 mi Calm Calm - N/A   Unknown
5:30 AM 51.8 °F - 51.8 °F 100% 30.09 in 6.2 mi NW 3.5 mph - N/A   Unknown
6:00 AM 55.4 °F - 53.6 °F 94% 30.12 in - Calm Calm - N/A   Clear
6:30 AM 59.0 °F - 55.4 °F 88% 30.12 in 6.2 mi Calm Calm - N/A   Unknown
7:00 AM 64.4 °F - 55.4 °F 73% 30.12 in - Calm Calm - N/A   Clear
7:30 AM 66.2 °F - 57.2 °F 73% 30.12 in 6.2 mi South 1.2 mph - N/A   Unknown
8:00 AM 69.8 °F - 55.4 °F 60% 30.12 in - NNE 4.6 mph - N/A   Clear
8:30 AM 73.4 °F - 55.4 °F 53% 30.12 in 6.2 mi West 3.5 mph - N/A   Partly Cloudy
9:00 AM 73.4 °F - 53.6 °F 50% 30.12 in 6.2 mi NNW 10.4 mph - N/A   Partly Cloudy
9:30 AM 75.2 °F - 53.6 °F 47% 30.09 in 6.2 mi NW 8.1 mph - N/A   Partly Cloudy
10:00 AM 77.0 °F - 53.6 °F 44% 30.09 in 6.2 mi NNW 5.8 mph - N/A   Partly Cloudy
10:30 AM 78.8 °F - 53.6 °F 42% 30.06 in 6.2 mi East 8.1 mph - N/A   Partly Cloudy
11:00 AM 78.8 °F - 53.6 °F 42% 30.06 in - NW 4.6 mph - N/A   Clear
11:30 AM 80.6 °F - 51.8 °F 37% 30.04 in - SSW 4.6 mph - N/A   Clear
12:00 PM 82.4 °F - 51.8 °F 35% 30.01 in - East 6.9 mph - N/A   Clear
12:30 PM 84.2 °F - 51.8 °F 33% 30.01 in 6.2 mi NE 5.8 mph - N/A   Unknown
1:00 PM 86.0 °F - 51.8 °F 31% 29.98 in - South 8.1 mph - N/A   Clear
1:30 PM 84.2 °F - 51.8 °F 33% 29.95 in - WNW 5.8 mph - N/A   Clear
2:00 PM 82.4 °F 82.0 °F 57.2 °F 42% 29.95 in - East 15.0 mph - N/A   Clear
2:30 PM 84.2 °F 83.8 °F 59.0 °F 42% 29.95 in - East 17.3 mph - N/A   Clear
3:00 PM 82.4 °F 82.5 °F 59.0 °F 45% 29.95 in - East 19.6 mph - N/A   Clear
3:30 PM 82.4 °F 82.5 °F 59.0 °F 45% 29.92 in - East 19.6 mph - N/A   Clear
4:00 PM 80.6 °F 81.1 °F 59.0 °F 48% 29.92 in - NE 18.4 mph - N/A   Clear
4:30 PM 78.8 °F - 60.8 °F 54% 29.92 in - NE 19.6 mph - N/A   Clear
5:00 PM 78.8 °F - 60.8 °F 54% 29.92 in - ENE 18.4 mph - N/A   Clear
5:30 PM 77.0 °F - 60.8 °F 57% 29.95 in - ENE 17.3 mph - N/A   Clear
6:00 PM 75.2 °F - 60.8 °F 61% 29.95 in - ENE 17.3 mph - N/A   Clear
6:30 PM 73.4 °F - 59.0 °F 61% 29.95 in - ENE 16.1 mph - N/A   Clear
7:00 PM 73.4 °F - 59.0 °F 61% 29.95 in - ENE 12.7 mph - N/A   Clear
7:30 PM 71.6 °F - 59.0 °F 64% 29.95 in - ENE 10.4 mph - N/A   Clear
8:00 PM 69.8 °F - 59.0 °F 68% 29.98 in 6.2 mi East 8.1 mph - N/A   Unknown
8:30 PM 69.8 °F - 59.0 °F 68% 29.98 in 6.2 mi East 6.9 mph - N/A   Unknown
9:00 PM 66.2 °F - 59.0 °F 78% 30.01 in 6.2 mi ESE 5.8 mph - N/A   Unknown
9:30 PM 68.0 °F - 60.8 °F 78% 30.01 in 6.2 mi East 5.8 mph - N/A   Unknown
10:00 PM 66.2 °F - 60.8 °F 83% 30.01 in 6.2 mi East 3.5 mph - N/A   Unknown
10:30 PM 62.6 °F - 57.2 °F 82% 30.04 in 6.2 mi ESE 1.2 mph - N/A   Unknown
11:00 PM 60.8 °F - 57.2 °F 88% 30.04 in 6.2 mi South 2.3 mph - N/A   Unknown
11:30 PM 60.8 °F - 57.2 °F 88% 30.04 in 6.2 mi Calm Calm - N/A   Unknown